Location: Unspecified
(0.0000°N, 0.0000°E)
Time: 07:29:56
(UTC+00:00)

Vanguard 2 - Visible Passes

Search period start: 20 October 2021 00:00
Search period end: 30 October 2021 00:00
Orbit: 553 x 2936 km, 32.9° (Epoch: 19 October)

Date Brightness Start Highest point End Pass type
(mag) Time Alt. Az. Time Alt. Az. Time Alt. Az.
20 Oct 11.6 17:49:28 10° SSW 17:57:40 16° SSE 18:06:50 10° SE visible
20 Oct 10.8 19:58:51 10° SSW 20:13:59 35° SSE 20:17:15 33° SE visible
20 Oct 11.0 22:09:57 10° SW 22:18:38 36° SW 22:18:38 36° SW visible
21 Oct 11.5 18:07:04 10° SSW 18:17:01 19° SSE 18:28:06 10° ESE visible
21 Oct 10.6 20:16:19 10° SW 20:32:32 44° SSE 20:33:47 43° SE visible
21 Oct 11.2 22:27:57 10° SW 22:35:11 31° WSW 22:35:11 31° WSW visible
22 Oct 11.3 18:24:28 10° SSW 18:36:05 24° SSE 18:48:58 10° ESE visible
22 Oct 10.4 20:33:50 10° SW 20:50:23 55° SSE 20:50:23 55° SSE visible
22 Oct 11.4 22:46:13 10° WSW 22:51:47 25° WSW 22:51:47 25° WSW visible
23 Oct 11.1 18:41:47 10° SSW 18:54:52 30° SSE 19:05:38 17° ESE visible
23 Oct 10.3 20:51:27 10° SW 21:07:01 65° S 21:07:01 65° S visible
23 Oct 11.6 23:04:50 10° WSW 23:08:25 19° WSW 23:08:25 19° WSW visible
24 Oct 10.8 18:59:06 10° SSW 19:13:24 38° SSE 19:22:19 25° ESE visible
24 Oct 10.3 21:09:15 10° SW 21:23:43 67° SW 21:23:43 67° SW visible
24 Oct 11.8 23:23:53 10° WSW 23:25:07 13° W 23:25:07 13° W visible
25 Oct 10.6 19:16:28 10° SW 19:31:42 48° SE 19:39:03 35° E visible
25 Oct 10.5 21:27:16 10° WSW 21:40:27 59° WSW 21:40:27 59° WSW visible
26 Oct 10.4 19:33:56 10° SW 19:49:53 60° SE 19:55:50 46° E visible
26 Oct 10.7 21:45:34 10° WSW 21:57:14 48° W 21:57:14 48° W visible
27 Oct 11.0 17:42:55 10° SSW 17:54:38 31° SSE 18:09:05 10° E visible
27 Oct 10.2 19:51:33 10° SW 20:07:57 74° SE 20:12:39 58° E visible
27 Oct 11.0 22:04:14 10° WSW 22:14:03 37° W 22:14:03 37° W visible
28 Oct 10.7 18:00:07 10° SSW 18:12:52 40° SE 18:28:06 12° E visible
28 Oct 10.1 20:09:21 10° SW 20:25:59 90° S 20:29:30 68° NE visible
28 Oct 11.3 22:23:20 10° W 22:30:54 28° W 22:30:54 28° W visible
29 Oct 10.5 18:17:24 10° SW 18:30:57 51° SE 18:44:58 17° ENE visible
29 Oct 10.2 20:27:23 10° WSW 20:44:02 74° NW 20:46:23 69° N visible
29 Oct 11.6 22:42:57 10° W 22:47:48 20° WNW 22:47:48 20° WNW visible
